Location: Unspecified
(0.0000°N, 0.0000°E)
Time: 20:28:43
(UTC+00:00)

ARIANE 2 DEB - Pass Details

Date: 14 March 2026
Orbit: 701 x 35694 km, 8.0° (Epoch: 21 April)

Event Time Altitude Azimuth Distance (km) Brightness Sun altitude
Rises 13:56:24 0° 88° (E) 35,036 ? 63.1°
Reaches altitude 10° 15:27:45 10° 90° (E) 39,596 ? 40.3°
Maximum altitude 19:13:55 32° 96° (E) 29,330 ? -16.2°
Enters shadow 20:04:05 28° 97° (E) 22,818 ? -28.7°
